Hlavní strana
METAR-TAF:

METAR-TAF

Letiště :

Pickens, Jižní Karolína, Spojené státy americké

zeměpisná šířka: 34-48-36N, zeměpisná délka: 082-42-10W, výška: 309 m

Aktuální stav počasí

Zpráva byla vytvořena před 26 minutami, v 18:15 UTC
Bezvětří
Teplota 11°C
Vlhkost vzduchu 100%
Tlak 1021 hPa
Viditelnost: 1.6 km
Zataženo ve výšce 300 ft
slabé mrholení

METAR: KLQK 181815Z AUTO 00000KT 1SM -DZ OVC003 11/11 A3014 RMK AO2 T01120112

Čas: 13:41 (18:41 UTC)


TAF: chybějící

Stav a předpovědi počasí z více než 4 000 letišť (zprávy METAR a TAF).

Červené a žluté tečky na mapě představují dostupné meteorologické stanice.

Když kurzor umístíte na tečku, zobrazí se název stanice.

Pak kliknutím zobrazíte stav a předpověď počasí.

Chcete-li změnit mapu, kliknutím na zelené tlačítko se znaménkem +mapu přiblížíte, kliknutím na zelené tlačítko se znaménkem – mapu oddálíte a kliknutím na zelené šipky přejdete na sousední mapy.


METAR-TAF: